Погода в Ребрихе

Погода в Ребрихе : погода сейчас, прогноз погоды и архив. Всё, что Вы хотите узнать о погоде в Ребрихе!

Хотите узнать прогноз погоды в Ребрихе? Тогда Вам сюда: Погода в Ребрихе

Поиск расширенной информации на нашем сайте:

Другие новости

Новости СМИ2

Главная страница сайта

Новости сайта

03.07.2017

Напоминаем, что на нашем специализированном сайте Метеоцентр.Азия вы можете получить высокодетализированные автоматические прогнозы погоды по пунктам России, СНГ и мира в авиационном формате (включающие направление и скорость ветра, видимость, явления погоды, количество и форму облачности, нижнюю и верхнюю границу облачности).


Погода в Ребрихе - сегодня

Время (UTC), дата Ветер
(°,м/с) 
Видим.   Явления Облачность Т
(°С)
Тd
(°С)
f(%) Тe
(°С)
Pmin
(гПа)
dP
(гПа)
Po
(мм)
O2
(г/м3)
Тmin Tmax R s Состояние
почвы
03 18.09.17 190 (Ю) н/о    н/о 
+16.4 +10.9 70 +19  1010.7  0.5  739  279           
06 18.09.17 190 (Ю) н/о    н/о 
+15.5 +13.6 88 +22  1011  0.2  739  279           
09 18.09.17 200 (Ю) н/о    н/о 
+18.6 +13.6 73 +26  1010.3  -0.4  739  276           
12 18.09.17 190 (Ю) н/о    н/о 
+17.2 +13.5 79 +25  1009.5  -0.9  738  277    +19     
15 18.09.17 140 (ЮВ) н/о    н/о 
+14.5 +13.5 94 +23  1008.9  -0.8  737  279           
18 18.09.17 200 (Ю) н/о    н/о 
+12.2 +12 99 +17  1009.4  0.2  738  282           
21 18.09.17 200 (Ю) н/о    н/о 
+9.1 +8.4 95 +9  1010.5  0.8  738  286           
00 19.09.17 190 (Ю) н/о    н/о 
+7.1 +6.6 97 +6  1011.8  739  289  +6.3    0.5     
03 19.09.17 190 (Ю) н/о    н/о 
+11 +8.4 84 +10  1011.8  0.4  739  285           
06 19.09.17 210 (ЮЗ) 4{12}  н/о    н/о 
+13.1 +8.8 75 +13  1012.5  0.8  740  283           
09 19.09.17 230 (ЮЗ) 5{11}  н/о    н/о 
+11.9 +8.8 81 +11  1013.2  0.7  740  284           
12 19.09.17 250 (З) 3{11}  н/о    н/о 
+9.2 +7.3 88 +9  1015.6  742  288    +13.8     
15 19.09.17 200 (Ю) н/о    н/о 
+8.1 +6.8 91 +8  1018.3  2.5  744  290           
18 19.09.17 230 (ЮЗ) н/о    н/о 
+8.4 +6.3 87 +8  1019.4  1.1  745  290           
21 19.09.17 210 (ЮЗ) н/о    н/о 
+6.7 +6.1 96 +7  1020.4  0.8  745  292           
00 20.09.17 210 (ЮЗ) н/о    н/о 
+7.2 +6.3 94 +7  1021.9  1.5  746  292  +5.8    0.3     
03 20.09.17 210 (ЮЗ) н/о    н/о 
+8.3 +6.5 88 +8  1023.2  1.3  747  291           
06 20.09.17 230 (ЮЗ) н/о    н/о 
+10.4 +4.5 67 +10  1023  747  289           
09 20.09.17 190 (Ю) н/о    н/о 
+10.4 +4.9 69 +10  1022.7  -0.3  747  289           
12 20.09.17 160 (Ю) н/о    н/о 
+10.1 +4.8 70 +10  1021.5  -1.2  746  289    +10.7       
15 20.09.17 150 (ЮВ) н/о    н/о 
+9.1 +4.9 75 +9  1019.9  -1.7  745  290           
18 20.09.17 150 (ЮВ) н/о    н/о 
+8.1 +6.9 92 +7  1016.6  -3.3  743  289           
21 20.09.17 100 (В) н/о    н/о 
+9 +8 93 +10  1012.9  -3.6  740  287           
00 21.09.17 170 (Ю) н/о    н/о 
+10.2 +9.3 94 +10  1009.4  -3.3  737  285  +7.9       
03 21.09.17 180 (Ю) 7-11{12}  н/о    н/о 
+12.1 +9.7 85 +12  1007.4  -1.8  736  282           
Время (UTC), дата Ветер
(°,м/с) 
Видим.   Явления Облачность Т
(°С)
Тd
(°С)
f(%) Тe
(°С)
Pmin
(гПа)
dP
(гПа)
Po
(мм)
O2
(г/м3)
Тmin Tmax R s Состояние
почвы

Для получения пояснительной информации подведите курсор к названию столбца.

ПОГОДА в Ребрихе - архив

Всё, что Вы хотите узнать о погоде в Ребрихе - удобно и подробно!

Выберите нужную дату (начиная с 1 января 2015* года) и нажмите кнопку "Найти".
Будут отображены архивные сводки погоды по пункту Ребриха, начиная с указанной даты.


Отображать данные в формате CSV (для использования в таблицах Excel)


Внимание! Наш архив погоды предназначен исключительно для личного некоммерческого использования в познавательных целях. Если Вам необходимы официальные справки о состоянии погоды (для производственных, юридических, коммерческих и т.п. целей), обращайтесь в органы Росгидромета.

*Примечание: данная дата относится к архиву по метеостанциям СССР (Россия, СНГ, Балтия).
Архив по метеостанциям Зарубежной Европы и Азии (кроме Китая) хранится 10 дней, по другим регионам земного шара (Китай, Африка, Америка, Австралия, Океания) - 1 день.

Ребриха - район местоположения метеостанции


Название, широта, долгота, высота метеостанции:
Ребриха 53.1°ш. 82.3°д. 219 м над ур. моря [Российская Федерация]

Дополнительная информация

В oтличие oт бoльшинства пoгoдных сайтoв мы публикуем пoдрoбную метеoинфoрмацию в детальнoм прoфессиoнальнoм фoрмате.

Характеристики температуры и влажнoсти вoздуха измеряются на высoте 2 м в тени вдали oт зданий и деревьев.
Скoрoсть ветра измеряется на высoте 10 м (на урoвне рoста челoвека скoрoсть ветра ниже в 1.5-2 раза). Если метеoстанция нахoдится в гoрoде или в лесу, тo скoрoсть ветра занижена на 2-4 м/с пo сравнению с oткрытым местoм. Скoрoсть ветра над акватoриями крупных рек и oзёр, а также на вершинах хoлмoв на 2-5 м/с выше, чем в oбычных услoвиях.
Атмoсфернoе давление в разных тoчках местнoсти мoжет значительнo oтличаться oт давления на метеoстанции, в зависимoсти oт услoвий рельефа (при пoдъёме на 10 м давление пoнижается примернo на 1 мм рт.ст.).